EW3197 Weather Reports


Display with metric or nautical units.
time (UTC)temp
F
wind
direction
speed
MPH
gust
MPH
rain 1hr
in
rain 24hr
in
rain mn
in
humidity
%
barometer
mb
20260906011204 61 69 0.0 0.0 0.00 0.00 0.00 86 1012.2
20260906010703 61 69 0.0 0.0 0.00 0.00 0.00 86 1012.2
20260906010204 61 69 0.0 0.0 0.00 0.00 0.00 86 1012.3
20260906005704 62 69 0.0 0.0 0.00 0.00 0.00 86 1012.3
20260906004204 62 69 0.0 1.0 0.00 0.00 0.00 86 1012.1
20260906003704 62 69 0.0 0.0 0.00 0.00 0.00 85 1012.0
20260906003204 63 69 0.0 0.0 0.00 0.00 0.00 85 1012.1
20260906002705 63 69 0.0 0.0 0.00 0.00 0.00 85 1011.9
20260906002204 63 69 0.0 0.0 0.00 0.00 0.00 85 1011.9
20260906001705 63 69 0.0 0.0 0.00 0.00 0.00 85 1011.9
20260906001205 63 69 0.0 0.0 0.00 0.00 0.00 85 1011.9
20260906000704 64 69 0.0 0.0 0.00 0.00 0.00 84 1011.9
20260906000204 64 69 0.0 0.0 0.00 0.00 0.00 84 1011.9
20260905235703 64 69 0.0 0.0 0.00 0.00 0.00 84 1011.9
20260905235204 64 69 0.0 0.0 0.00 0.00 0.00 84 1011.8
20260905234703 65 69 0.0 0.0 0.00 0.00 0.00 83 1011.6
20260905234204 65 69 0.0 0.0 0.00 0.00 0.00 83 1011.6
20260905233704 65 69 0.0 0.0 0.00 0.00 0.00 82 1011.5
20260905233204 66 69 0.0 0.0 0.00 0.00 0.00 82 1011.5
20260905232704 66 69 0.0 0.0 0.00 0.00 0.00 81 1011.4
20260905232204 67 69 0.0 0.0 0.00 0.00 0.00 81 1011.3
20260905231204 67 69 0.0 0.0 0.00 0.00 0.00 79 1011.2
20260905230704 67 69 0.0 2.0 0.00 0.00 0.00 80 1011.2
20260905230204 68 68 0.0 0.0 0.00 0.00 0.00 80 1011.2
20260905225704 68 68 0.0 0.0 0.00 0.00 0.00 79 1011.2
20260905224704 69 68 0.0 0.0 0.00 0.00 0.00 78 1011.3
20260905224204 69 68 0.0 0.0 0.00 0.00 0.00 76 1011.2
20260905223704 70 68 0.0 1.0 0.00 0.00 0.00 75 1011.2
20260905223204 70 68 0.0 1.0 0.00 0.00 0.00 74 1011.2
20260905222704 70 68 1.0 2.0 0.00 0.00 0.00 74 1011.1
20260905222203 71 68 1.0 3.0 0.00 0.00 0.00 74 1011.0
20260905221704 71 333 0.0 1.0 0.00 0.00 0.00 73 1011.0
20260905221203 71 333 1.0 2.0 0.00 0.00 0.00 71 1011.0
20260905215703 72 333 2.0 3.0 0.00 0.00 0.00 70 1010.8
20260905215204 72 318 1.0 10.0 0.00 0.00 0.00 70 1010.7
20260905214704 73 334 1.0 3.0 0.00 0.00 0.00 69 1010.7
20260905212704 75 19 2.0 7.0 0.00 0.00 0.00 66 1010.5
20260905211705 75 351 2.0 6.0 0.00 0.00 0.00 64 1010.5
20260905211203 75 199 3.0 12.0 0.00 0.00 0.00 63 1010.6
20260905210704 75 318 2.0 5.0 0.00 0.00 0.00 65 1010.6
20260905205704 76 326 1.0 6.0 0.00 0.00 0.00 65 1010.3
20260905205204 76 235 2.0 5.0 0.00 0.00 0.00 64 1010.2
20260905204704 76 336 2.0 7.0 0.00 0.00 0.00 64 1010.2
20260905204204 77 264 2.0 6.0 0.00 0.00 0.00 64 1010.2
20260905203703 77 334 3.0 8.0 0.00 0.00 0.00 62 1010.2
20260905203204 77 297 3.0 7.0 0.00 0.00 0.00 63 1010.3
20260905202704 77 290 2.0 9.0 0.00 0.00 0.00 63 1010.2
20260905202204 77 294 3.0 8.0 0.00 0.00 0.00 64 1010.2
20260905201704 75 249 2.0 3.0 0.00 0.00 0.00 66 1010.3
20260905201204 73 344 2.0 5.0 0.00 0.00 0.00 67 1010.3
20260905200703 73 269 2.0 6.0 0.00 0.00 0.00 68 1010.2
20260905195704 74 22 2.0 6.0 0.00 0.00 0.00 67 1010.2
20260905195204 75 28 3.0 9.0 0.00 0.00 0.00 64 1010.2
20260905194704 78 296 4.0 15.0 0.00 0.00 0.00 60 1010.1
20260905194204 79 105 3.0 12.0 0.00 0.00 0.00 59 1010.0
20260905193704 79 307 2.0 8.0 0.00 0.00 0.00 63 1009.9
20260905193204 78 272 3.0 8.0 0.00 0.00 0.00 61 1009.9
20260905192704 78 242 3.0 10.0 0.00 0.00 0.00 63 1009.9
20260905192204 78 234 2.0 8.0 0.00 0.00 0.00 61 1009.8
20260905191703 78 319 2.0 7.0 0.00 0.00 0.00 61 1010.0
20260905191204 77 339 2.0 7.0 0.00 0.00 0.00 64 1009.9
20260905190704 77 50 5.0 12.0 0.00 0.00 0.00 62 1010.0
20260905190204 77 342 2.0 8.0 0.00 0.00 0.00 62 1010.0
20260905185704 77 288 2.0 3.0 0.00 0.00 0.00 64 1010.1
20260905185204 77 67 2.0 7.0 0.00 0.00 0.00 63 1010.0
20260905184704 78 346 4.0 8.0 0.00 0.00 0.00 62 1010.1
20260905184204 78 323 3.0 9.0 0.00 0.00 0.00 62 1010.1
20260905183704 78 8 3.0 5.0 0.00 0.00 0.00 65 1010.0
20260905183204 77 239 2.0 8.0 0.00 0.00 0.00 64 1010.0
20260905182704 77 179 2.0 6.0 0.00 0.00 0.00 64 1010.1
20260905181704 76 236 2.0 6.0 0.00 0.00 0.00 64 1010.0
20260905181204 76 323 3.0 9.0 0.00 0.00 0.00 63 1010.1
20260905180704 76 211 1.0 7.0 0.00 0.00 0.00 66 1010.2
20260905180204 76 224 3.0 6.0 0.00 0.00 0.00 64 1010.2
20260905175704 76 300 3.0 9.0 0.00 0.00 0.00 65 1010.3
20260905175204 75 330 2.0 9.0 0.00 0.00 0.00 66 1010.4
20260905174704 76 272 3.0 8.0 0.00 0.00 0.00 65 1010.4
20260905174204 76 241 2.0 9.0 0.00 0.00 0.00 65 1010.3
20260905173704 76 204 3.0 12.0 0.00 0.00 0.00 64 1010.3
20260905172704 74 57 1.0 8.0 0.00 0.00 0.00 66 1010.4
20260905172204 75 36 2.0 8.0 0.00 0.00 0.00 66 1010.4
20260905171704 75 289 3.0 8.0 0.00 0.00 0.00 62 1010.3
20260905171205 75 341 2.0 7.0 0.00 0.00 0.00 64 1010.2
20260905170704 75 287 3.0 7.0 0.00 0.00 0.00 66 1010.3
20260905170204 75 274 2.0 3.0 0.00 0.00 0.00 66 1010.3
20260905165703 74 311 2.0 3.0 0.00 0.00 0.00 67 1010.4
20260905165204 74 333 1.0 3.0 0.00 0.00 0.00 67 1010.3
20260905164704 74 306 2.0 5.0 0.00 0.00 0.00 66 1010.3
20260905164203 73 10 3.0 5.0 0.00 0.00 0.00 68 1010.4
20260905163704 72 274 1.0 3.0 0.00 0.00 0.00 68 1010.4
20260905162704 73 319 2.0 3.0 0.00 0.00 0.00 67 1010.3
20260905161704 73 291 2.0 3.0 0.00 0.00 0.00 68 1010.4
20260905161203 73 311 2.0 6.0 0.00 0.00 0.00 66 1010.3
20260905160204 72 286 2.0 7.0 0.00 0.00 0.00 68 1010.4
20260905155704 72 262 2.0 3.0 0.00 0.00 0.00 68 1010.4
20260905155204 73 316 4.0 9.0 0.00 0.00 0.00 67 1010.5
20260905154704 73 325 2.0 9.0 0.00 0.00 0.00 67 1010.5
20260905154204 72 329 3.0 8.0 0.00 0.00 0.00 69 1010.6
20260905153704 72 313 2.0 8.0 0.00 0.00 0.00 69 1010.6
20260905153204 72 276 1.0 12.0 0.00 0.00 0.00 68 1010.6
20260905152704 73 339 4.0 8.0 0.00 0.00 0.00 67 1010.6
20260905152204 72 3 2.0 8.0 0.00 0.00 0.00 70 1010.6
20260905151704 71 34 1.0 9.0 0.00 0.00 0.00 70 1010.7
20260905151204 71 63 1.0 3.0 0.00 0.00 0.00 70 1010.7
20260905150704 72 228 4.0 10.0 0.00 0.00 0.00 68 1010.6
20260905150204 72 307 3.0 9.0 0.00 0.00 0.00 70 1010.6
20260905145705 72 247 3.0 9.0 0.00 0.00 0.00 70 1010.6
20260905145204 72 304 3.0 8.0 0.00 0.00 0.00 70 1010.6
20260905144704 71 244 3.0 6.0 0.00 0.00 0.00 73 1010.6
20260905144204 70 280 1.0 6.0 0.00 0.00 0.00 72 1010.5
20260905143703 71 209 3.0 8.0 0.00 0.00 0.00 71 1010.6
20260905143204 71 238 2.0 8.0 0.00 0.00 0.00 71 1010.5
20260905142704 71 328 3.0 7.0 0.00 0.00 0.00 71 1010.5
20260905142203 71 285 2.0 6.0 0.00 0.00 0.00 71 1010.5
20260905141704 71 283 3.0 8.0 0.00 0.00 0.00 72 1010.6
20260905141204 70 33 2.0 3.0 0.00 0.00 0.00 75 1010.6
20260905140704 69 306 2.0 9.0 0.00 0.00 0.00 76 1010.6
20260905135704 69 286 2.0 6.0 0.00 0.00 0.00 76 1010.6
20260905135204 69 318 1.0 6.0 0.00 0.00 0.00 76 1010.7
20260905134704 69 267 2.0 8.0 0.00 0.00 0.00 76 1010.7
20260905134204 68 334 2.0 5.0 0.00 0.00 0.00 76 1010.7
20260905133704 68 212 1.0 3.0 0.00 0.00 0.00 76 1010.8
20260905133203 68 243 2.0 5.0 0.00 0.00 0.00 77 1010.8
20260905132704 68 290 3.0 7.0 0.00 0.00 0.00 77 1010.8
20260905132204 68 257 1.0 6.0 0.00 0.00 0.00 78 1010.8
20260905131704 67 318 1.0 3.0 0.00 0.00 0.00 81 1010.8
20260905131204 67 301 4.0 7.0 0.00 0.00 0.00 83 1010.9
20260905130704 66 16 2.0 3.0 0.00 0.00 0.00 85 1010.9
20260905130204 65 314 2.0 7.0 0.00 0.00 0.00 87 1011.0
20260905125704 64 301 2.0 3.0 0.00 0.00 0.00 89 1011.1
20260905125204 64 291 0.0 2.0 0.00 0.00 0.00 89 1011.0
20260905124204 62 314 0.0 0.0 0.00 0.00 0.00 90 1011.0
20260905123704 62 314 0.0 0.0 0.00 0.00 0.00 90 1011.0
20260905122704 61 314 0.0 0.0 0.00 0.00 0.00 90 1011.0
20260905122204 61 314 0.0 0.0 0.00 0.00 0.00 91 1010.9
20260905121704 60 314 0.0 0.0 0.00 0.00 0.00 91 1011.0
20260905121204 60 314 0.0 0.0 0.00 0.00 0.00 91 1011.0
20260905120704 60 314 0.0 0.0 0.00 0.00 0.00 91 1010.9
20260905120204 59 314 0.0 0.0 0.00 0.00 0.00 91 1010.9
20260905115205 58 314 0.0 0.0 0.00 0.00 0.00 91 1010.8
20260905114705 57 314 0.0 0.0 0.00 0.00 0.00 91 1010.7
20260905113704 57 314 0.0 0.0 0.00 0.00 0.00 90 1010.6
20260905113204 56 314 0.0 0.0 0.00 0.00 0.00 91 1010.6
20260905112204 56 314 0.0 0.0 0.00 0.00 0.00 90 1010.6
20260905111704 56 314 0.0 0.0 0.00 0.00 0.00 91 1010.5
20260905111204 55 314 0.0 0.0 0.00 0.00 0.00 90 1010.4
20260905110704 55 314 0.0 0.0 0.00 0.00 0.00 90 1010.4
20260905110204 55 314 0.0 0.0 0.00 0.00 0.00 90 1010.4
20260905105704 55 314 0.0 0.0 0.00 0.00 0.00 90 1010.3
20260905105204 55 314 0.0 0.0 0.00 0.00 0.00 90 1010.3
20260905104204 55 314 0.0 0.0 0.00 0.00 0.00 90 1010.1
20260905103204 55 314 0.0 0.0 0.00 0.00 0.00 90 1010.0
20260905102704 55 314 0.0 0.0 0.00 0.00 0.00 90 1009.9
20260905102203 55 314 0.0 0.0 0.00 0.00 0.00 90 1009.9
20260905101704 55 314 0.0 0.0 0.00 0.00 0.00 90 1009.9
20260905101204 55 314 0.0 0.0 0.00 0.00 0.00 90 1009.9
20260905100704 55 314 0.0 0.0 0.00 0.00 0.00 90 1009.8
20260905095706 55 314 0.0 0.0 0.00 0.00 0.00 90 1009.8
20260905095205 55 314 0.0 0.0 0.00 0.00 0.00 90 1009.7
20260905094705 55 314 0.0 0.0 0.00 0.00 0.00 90 1009.8
20260905094204 55 314 0.0 0.0 0.00 0.00 0.00 90 1009.8
20260905093704 55 314 0.0 0.0 0.00 0.00 0.00 90 1009.8
20260905093204 55 314 0.0 0.0 0.00 0.00 0.00 90 1009.8
20260905092704 55 314 0.0 0.0 0.00 0.00 0.00 90 1009.8
20260905092204 56 314 0.0 0.0 0.00 0.00 0.00 90 1009.8
20260905091204 56 314 0.0 0.0 0.00 0.00 0.00 90 1009.8
20260905085204 56 314 0.0 0.0 0.00 0.00 0.00 90 1009.8
20260905084704 56 314 0.0 0.0 0.00 0.00 0.00 90 1009.9
20260905084204 56 314 0.0 0.0 0.00 0.00 0.00 90 1009.8
20260905083704 56 314 0.0 0.0 0.00 0.00 0.00 90 1009.8
20260905082204 56 314 0.0 0.0 0.00 0.00 0.00 90 1009.6
20260905081704 56 314 0.0 0.0 0.00 0.00 0.00 90 1009.6
20260905080704 56 314 0.0 0.0 0.00 0.00 0.00 90 1009.7
20260905080204 57 314 0.0 0.0 0.00 0.00 0.00 90 1009.8
20260905075704 57 314 0.0 0.0 0.00 0.00 0.00 90 1009.7
20260905075204 57 314 0.0 0.0 0.00 0.00 0.00 90 1009.7
20260905074704 57 314 0.0 0.0 0.00 0.00 0.00 90 1009.7
20260905074203 57 314 0.0 0.0 0.00 0.00 0.00 90 1009.8
20260905073704 57 314 0.0 0.0 0.00 0.00 0.00 90 1009.8
20260905073204 57 314 0.0 0.0 0.00 0.00 0.00 90 1009.7
20260905072704 57 314 0.0 0.0 0.00 0.00 0.00 89 1009.8
20260905071704 57 314 0.0 0.0 0.00 0.00 0.00 90 1009.9
20260905071204 57 314 0.0 0.0 0.00 0.00 0.00 89 1009.9
20260905070204 57 314 0.0 0.0 0.00 0.00 0.00 89 1010.0
20260905065704 57 314 0.0 0.0 0.00 0.00 0.00 89 1010.1
20260905064703 58 314 0.0 0.0 0.00 0.00 0.00 89 1010.1
20260905064204 58 314 0.0 0.0 0.00 0.00 0.00 89 1010.2
20260905063704 58 314 0.0 0.0 0.00 0.00 0.00 89 1010.2
20260905063204 58 314 0.0 0.0 0.00 0.00 0.00 89 1010.2
20260905061704 58 314 0.0 0.0 0.00 0.00 0.00 89 1010.3
20260905061204 58 314 0.0 0.0 0.00 0.00 0.00 89 1010.3
20260905060704 58 314 0.0 0.0 0.00 0.00 0.00 89 1010.2
20260905055703 58 314 0.0 0.0 0.00 0.00 0.00 89 1010.3
20260905055203 59 314 0.0 0.0 0.00 0.00 0.00 89 1010.4
20260905054704 59 314 0.0 0.0 0.00 0.00 0.00 89 1010.5
20260905053704 58 314 0.0 0.0 0.00 0.00 0.00 89 1010.5
20260905053204 59 314 0.0 0.0 0.00 0.00 0.00 89 1010.5
20260905052704 59 314 0.0 0.0 0.00 0.00 0.00 89 1010.6
20260905051703 59 314 0.0 0.0 0.00 0.00 0.00 88 1010.7
20260905051204 59 314 0.0 0.0 0.00 0.00 0.00 88 1010.7
20260905050704 59 314 0.0 0.0 0.00 0.00 0.00 88 1010.7
20260905050204 59 314 0.0 0.0 0.00 0.00 0.00 88 1010.8
20260905045704 59 314 0.0 0.0 0.00 0.00 0.00 88 1010.7
20260905044704 59 314 0.0 0.0 0.00 0.00 0.00 88 1010.7
20260905044203 59 314 0.0 0.0 0.00 0.00 0.00 88 1010.6
20260905043704 59 314 0.0 0.0 0.00 0.00 0.00 88 1010.7
20260905042704 60 314 0.0 0.0 0.00 0.00 0.00 88 1010.8
20260905042204 60 314 0.0 0.0 0.00 0.00 0.00 88 1010.8
20260905041704 60 314 0.0 0.0 0.00 0.00 0.00 88 1010.8
20260905041203 60 314 0.0 0.0 0.00 0.00 0.00 88 1010.8
20260905040204 60 314 0.0 0.0 0.00 0.00 0.00 88 1010.8
20260905035704 60 314 0.0 0.0 0.00 0.00 0.00 88 1010.8
20260905035204 60 314 0.0 0.0 0.00 0.00 0.00 88 1010.7
20260905034704 60 314 0.0 0.0 0.00 0.00 0.00 88 1010.7
20260905034204 61 314 0.0 0.0 0.00 0.00 0.00 87 1010.4
20260905033704 61 314 0.0 0.0 0.00 0.00 0.00 87 1010.4
20260905032704 61 314 0.0 0.0 0.00 0.00 0.00 87 1010.4
20260905032204 61 314 0.0 0.0 0.00 0.00 0.00 87 1010.5
20260905030704 61 314 0.0 0.0 0.00 0.00 0.00 87 1010.7
20260905030204 62 314 0.0 0.0 0.00 0.00 0.00 87 1010.7
20260905025704 62 314 0.0 0.0 0.00 0.00 0.00 87 1010.8
20260905025204 62 314 0.0 0.0 0.00 0.00 0.00 87 1010.8
20260905024704 62 314 0.0 0.0 0.00 0.00 0.00 87 1010.8
20260905023704 62 314 0.0 0.0 0.00 0.00 0.00 87 1010.8
20260905023204 62 314 0.0 0.0 0.00 0.00 0.00 87 1010.8
20260905022704 62 314 0.0 0.0 0.00 0.00 0.00 86 1010.7
20260905022204 62 314 0.0 0.0 0.00 0.00 0.00 86 1010.7
20260905021703 63 314 0.0 0.0 0.00 0.00 0.00 86 1010.6
20260905021204 63 314 0.0 0.0 0.00 0.00 0.00 86 1010.6
20260905020704 63 314 0.0 0.0 0.00 0.00 0.00 86 1010.6
20260905020204 63 314 0.0 0.0 0.00 0.00 0.00 86 1010.5
20260905015704 63 314 0.0 0.0 0.00 0.00 0.00 85 1010.5
20260905015204 63 314 0.0 0.0 0.00 0.00 0.00 85 1010.7
20260905014704 63 314 0.0 0.0 0.00 0.00 0.00 85 1010.7
20260905014204 64 314 0.0 0.0 0.00 0.00 0.00 85 1010.7
20260905013704 64 314 0.0 0.0 0.00 0.00 0.00 85 1010.8
20260905013203 64 314 0.0 0.0 0.00 0.00 0.00 85 1010.8
20260905012704 64 314 0.0 0.0 0.00 0.00 0.00 85 1010.8
20260905012204 64 314 0.0 0.0 0.00 0.00 0.00 85 1010.8
20260905011704 65 314 0.0 0.0 0.00 0.00 0.00 85 1010.8